Weather in Campo Grande

Brazil     20°27′46″S   54°37′08″W
temp.,
°C
wind,
m/s
gust,
m/s
humid.,
%
clouds,
%
prec.,
mm/h
press.,
hPa
HPBL,
m
26 september, sun
sun2623:00+26e33350 0.0 101361
02:00+24e35400 0.0 101189
05:00+23ene35440 0.0 101298
08:00+31ene45265 0.0 1014438
11:00+36nw3417100 0.0 10134181
14:00+35ene441897 0.0 10102087
17:00+31wsw342861 0.1 1011178
20:00+28se223312 0.3 101323
27 september, mon
mon2723:00+25ene37385 0.0 1015140
02:00+25nne244238 0.0 101371
05:00+23ne36490 0.0 1014114
08:00+31nne47295 0.0 1016743
11:00+37n33195 0.0 10143099
14:00+36nw221869 0.0 10103373
17:00+32nnw3526100 0.1 1010250
20:00+30se232870 0.1 101164
28 september, tue
tue2823:00+27nne223544 0.0 101249
02:00+25ne36405 0.0 1010116
05:00+25ne394064 0.0 1011175
08:00+27ne4937100 0.0 1014380
11:00+34n462293 0.0 10121664
14:00+37nw341891 0.0 10073659
17:00+34n582421 0.0 1007438
20:00+31nw362572 0.0 1008134
29 september, wed
wed2923:00+30nne3426100 0.0 100877
02:00+28nne383322 0.0 1007185
05:00+27nnw36360 0.0 1009101
08:00+34nw47240 0.0 1010753
11:00+38nw42185 0.0 10083695
14:00+39w43156 0.0 10053534
17:00+36sw121945 0.0 1005166
20:00+31ne37254 0.0 1007131
30 september, thu
thu3023:00+30nne36263 0.0 100792
02:00+29e352728 0.0 100583
05:00+28ene2429100 0.0 100789
08:00+29ene573199 0.0 1010249
11:00+33ne332485 0.0 1008469
14:00+39n331617 0.0 10043693
17:00+36nnw36197 0.0 1003317
20:00+33nne232466 0.0 100555